SCP
2 2 1 1 1 1 1 1 1 1 1 1 1 1 1 0 0 0 0 0 0 0 0 0 0 1 1 1 1 0 0 0 0 0 0 0 0 0 1 1 1 1 1
2 1 1 1 1 1 1 1 1 1 1 1 1 1 1 0 0 0 0 0 1 0 0 0 0 0 1 1 1 0 0 0 1 0 0 0 0 0 1 1 1 1 1
1 1 1 1 1 1 1 1 1 1 1 1 1 1 0 0 0 0 0 0 1 1 1 0 0 1 1 1 0 0 0 1 1 1 1 1 1 1 1 1 1 1 1
1 1 1 1 1 1 1 1 1 0 0 0 0 0 0 1 1 1 1 1 1 1 1 1 1 1 1 1 1 1 1 1 1 1 1 1 1 1 1 1 1 1 1
1 1 2 2 1 1 1 1 1 0 0 0 0 0 1 1 1 1 1 1 1 1 1 1 1 1 1 1 1 1 1 1 1 1 1 1 1 1 1 1 1 1 1
1 1 2 1 1 1 1 1 1 1 1 1 0 0 1 1 1 1 1 1 1 1 1 1 1 1 1 1 1 1 1 1 1 1 1 1 1 2 2 1 1 1 1
1 1 1 1 1 1 1 1 1 1 1 1 1 1 1 1 1 1 1 1 1 1 2 2 2 1 1 1 1 1 1 1 1 1 1 1 2 2 2 1 1 1 1
1 1 1 1 1 1 1 1 1 1 1 1 1 1 1 1 1 1 1 1 1 2 2 2 2 2 1 1 1 1 1 1 1 1 1 2 2 1 1 1 1 1 1
2 2 2 2 1 1 1 1 1 1 1 1 1 1 1 1 1 1 1 1 2 2 2 2 2 2 2 2 1 1 1 1 1 1 1 1 1 1 1 1 1 1 1
2 2 2 2 2 2 2 3 2 2 2 2 2 2 2 2 2 2 2 2 2 2 2 2 2 2 2 2 2 1 1 1 1 1 1 1 1 1 1 1 1 1 1
3 4 4 4 4 5 5 6 5 4 3 2 2 2 2 3 2 2 2 2 2 2 3 3 3 3 3 3 2 2 1 1 1 1 1 1 1 1 1 1 1 1 1
5 6 6 7 7 9 11 11 9 6 3 2 2 3 3 3 3 3 3 2 2 2 4 4 4 4 4 3 3 2 1 1 1 1 1 1 1 1 1 1 1 1 1
7 8 7 7 9 11 13 14 13 8 4 2 2 3 3 3 3 4 3 2 2 2 4 5 5 5 5 4 3 2 2 1 1 1 1 1 0 0 0 0 1 1 1
9 8 6 6 7 9 10 11 11 8 4 2 2 3 3 3 3 4 4 3 2 2 3 4 4 4 4 4 3 2 2 1 1 0 0 0 0 0 0 0 0 0 1
8 7 5 4 5 5 6 7 7 6 4 3 2 2 2 2 3 4 4 3 3 2 2 3 3 3 3 3 2 2 2 1 1 0 0 0 0 0 0 0 0 0 0
6 5 5 4 4 5 6 7 6 5 4 4 3 3 3 2 2 3 3 3 3 3 2 2 2 3 3 2 2 2 2 1 1 0 0 0 0 0 0 0 0 0 0
4 5 5 5 5 5 7 8 7 5 5 5 4 4 4 3 3 3 3 4 4 4 3 3 2 3 3 3 2 2 2 2 1 1 0 0 0 0 0 0 0 0 0
3 4 4 5 5 5 6 8 7 6 5 5 5 4 4 4 4 5 5 5 5 5 5 4 3 3 3 3 3 3 3 2 2 1 0 0 0 0 0 0 0 0 0
3 3 4 4 4 5 6 8 8 7 6 5 5 5 5 5 6 6 7 7 7 6 6 5 4 3 4 4 4 4 3 3 2 1 1 0 0 0 0 0 0 0 0
3 3 4 4 4 5 6 7 8 7 6 5 5 5 5 5 6 6 7 8 8 8 7 6 5 4 4 5 6 5 3 3 2 2 1 1 1 1 0 0 0 0 0
3 4 4 4 4 5 5 7 7 6 5 5 5 5 5 5 5 5 5 6 7 7 7 6 5 4 4 5 6 5 3 3 2 2 2 2 2 1 1 1 0 0 0
3 4 4 4 5 5 5 5 5 6 6 5 5 6 6 5 4 4 4 3 4 5 5 5 4 4 4 4 4 4 3 2 2 3 3 3 2 2 2 1 1 0 0
3 4 4 5 5 5 4 3 4 6 7 7 6 7 8 8 6 5 4 4 3 3 3 4 4 4 4 4 4 3 3 3 3 3 4 4 4 3 2 1 1 0 0
4 4 5 5 6 5 4 3 4 7 9 7 7 8 11 11 8 6 5 5 4 4 3 3 3 3 4 4 4 4 4 4 4 4 5 5 5 3 2 1 1 0 0
5 5 6 7 8 8 6 4 5 7 8 6 6 9 12 11 8 5 4 4 5 4 3 2 2 2 3 3 3 3 4 4 4 5 6 5 4 3 2 2 1 0 0
6 6 6 8 11 11 8 4 4 6 6 5 5 7 9 8 6 4 3 4 4 5 4 3 2 2 2 2 2 2 3 4 4 5 5 5 4 3 2 2 1 1 0
Wind_Speed
3 4 3 3 4 4 5 4 5 6 6 6 5 5 5 5 4 3 4 8 5 4 4 4 3 3 4 5 5 5 5 5 4 4 4 5 6 6 5 5 6 6 6
4 4 4 3 4 4 4 4 6 5 5 5 6 5 4 4 4 3 3 6 7 5 4 4 4 3 3 3 4 4 4 4 4 5 5 5 6 6 6 6 6 6 6
4 3 4 4 4 4 5 4 5 5 5 5 5 5 4 3 3 3 2 2 4 6 4 3 3 3 3 4 4 4 4 4 4 4 5 5 5 5 6 6 6 6 6
4 3 3 4 4 4 4 4 4 4 4 4 4 3 3 3 3 2 2 2 1 2 5 5 3 3 3 3 3 3 4 4 4 4 5 5 6 5 5 6 6 6 6
3 3 3 4 3 3 3 4 4 4 4 4 3 3 2 2 2 2 2 3 3 2 2 6 5 4 3 3 3 2 3 4 4 4 4 5 6 6 5 6 6 6 6
3 3 3 4 3 3 3 4 4 3 3 3 3 3 2 2 1 1 2 2 2 2 2 2 4 5 5 4 3 3 3 4 4 4 4 4 5 5 5 5 5 5 6
3 2 3 3 3 3 3 4 4 4 3 3 3 3 2 2 1 1 1 1 2 2 2 1 1 1 3 6 5 3 3 4 4 4 4 4 4 4 5 5 5 5 6
2 3 3 3 3 3 4 3 3 2 2 2 1 1 2 3 3 1 2 2 2 2 2 2 2 1 1 1 4 5 4 4 3 3 3 4 4 4 4 4 5 5 6
2 2 2 2 2 3 3 3 3 3 1 2 1 2 1 0 2 2 1 1 1 1 2 2 2 2 3 2 2 5 5 4 3 3 3 3 3 4 4 4 4 4 5
2 3 3 3 3 2 3 4 3 3 3 2 2 1 2 2 1 1 3 2 2 2 3 2 2 2 2 2 2 2 4 4 3 3 2 2 3 3 3 4 4 4 4
3 3 3 3 3 3 2 2 2 3 3 3 2 2 2 2 3 2 1 1 2 2 2 2 1 1 1 1 2 3 4 3 3 2 2 2 2 2 3 3 3 3 3
3 3 3 3 4 3 3 3 3 4 3 3 3 3 3 2 2 2 2 2 2 1 1 1 1 1 1 2 2 5 4 3 3 3 3 2 1 2 2 2 2 2 3
3 3 3 3 3 3 4 3 4 3 4 4 4 3 2 2 2 2 2 2 2 1 2 2 2 2 2 1 2 6 4 4 3 3 3 3 2 2 1 1 0 1 1
2 2 3 3 3 4 4 3 4 4 3 4 5 4 3 3 2 2 2 2 3 3 2 2 2 2 2 2 3 4 4 6 4 4 3 3 3 2 2 1 1 1 1
2 3 3 3 3 4 4 4 3 3 3 5 5 5 4 3 3 3 3 4 4 4 3 2 2 2 2 2 3 3 3 6 6 5 4 4 3 3 2 2 2 3 3
2 3 3 4 3 4 4 4 4 4 4 4 4 4 5 4 3 4 4 4 4 4 4 1 2 2 2 2 3 3 2 8 7 6 5 4 4 3 3 2 2 3 3
2 3 3 3 4 4 4 4 5 5 6 5 5 6 6 6 5 4 4 4 4 4 4 3 1 2 3 3 3 3 4 4 5 8 7 5 4 4 3 2 2 2 2
3 3 3 4 4 4 5 5 6 5 6 6 6 6 6 5 6 6 5 6 5 5 5 4 3 3 4 4 4 4 3 4 3 8 8 7 6 5 4 3 3 2 2
3 3 3 4 4 4 4 5 5 5 6 6 6 6 6 6 7 6 6 6 5 5 5 5 4 3 3 3 4 4 4 3 4 7 9 9 7 6 5 5 4 4 3
3 3 3 3 4 4 4 4 4 5 5 6 6 6 6 6 6 6 6 6 5 5 5 5 4 4 4 4 4 4 4 4 4 4 5 5 7 9 8 7 6 5 5
4 3 4 4 4 4 3 3 4 5 5 6 6 6 6 5 5 5 5 5 5 5 5 5 5 4 4 4 5 5 4 4 4 4 4 5 6 6 7 9 8 7 6
3 3 4 4 4 3 1 1 4 5 5 6 5 5 5 6 5 6 5 6 6 7 6 6 6 6 6 6 5 5 4 4 4 4 4 4 4 5 5 5 8 9 8
3 4 4 4 4 2 1 2 4 6 5 5 5 5 5 4 4 6 6 7 8 9 9 8 8 8 7 6 6 7 6 6 4 3 4 5 5 5 4 4 10 10 9
4 4 5 4 4 2 3 3 4 7 6 5 6 6 6 5 5 4 6 7 7 8 8 9 8 8 7 5 6 7 6 6 5 4 5 5 5 5 4 4 10 10 10
4 5 5 5 5 3 3 3 4 6 5 6 6 6 6 6 2 3 6 7 7 6 5 5 4 4 3 4 5 6 6 6 5 5 6 5 4 4 4 4 7 12 10
4 5 4 4 5 5 4 5 5 6 5 6 5 5 5 5 3 4 7 7 7 6 5 4 5 5 6 7 8 8 7 6 5 5 5 5 5 4 4 4 5 7 8
Wind_Direction
91 95 95 96 104 112 126 123 114 115 115 113 107 109 105 95 91 87 106 114 114 119 133 144 162 175 171 174 176 179 184 180 177 176 181 185 187 190 198 209 213 214 214
88 94 106 102 101 102 103 112 119 119 113 109 110 106 100 98 89 86 95 119 121 123 128 149 158 157 156 164 174 177 187 189 183 183 187 194 196 197 203 212 218 215 209
95 102 108 111 101 106 118 121 119 117 120 117 110 108 112 108 101 106 103 105 127 136 147 151 151 159 161 164 174 188 195 192 189 187 193 199 204 209 215 218 216 209 205
96 103 105 104 106 113 118 118 123 119 118 120 118 116 116 124 126 132 136 128 121 136 146 146 147 152 151 158 166 173 180 180 185 189 198 205 209 211 214 218 214 209 204
103 107 98 99 120 116 119 122 116 121 123 123 127 128 130 127 136 149 142 147 150 162 149 140 152 153 156 160 168 169 173 171 176 190 203 209 210 210 211 213 213 211 206
111 115 117 115 126 117 117 113 116 118 124 135 133 114 119 128 144 142 173 165 159 174 177 164 161 160 162 164 166 167 171 176 181 189 200 208 206 206 206 210 211 213 215
116 115 111 119 127 121 125 133 134 139 142 142 145 139 140 149 150 177 190 191 174 180 171 187 184 173 160 169 178 181 182 192 197 198 202 204 201 199 206 211 209 213 219
133 138 133 147 134 135 144 146 156 162 160 172 199 184 173 164 163 176 171 186 202 194 187 190 189 188 251 203 140 167 188 199 204 204 195 190 195 199 207 210 215 217 220
147 131 151 158 159 178 159 171 181 198 193 180 236 280 268 109 137 147 153 188 203 218 221 206 202 206 214 216 182 159 173 183 190 196 203 199 195 197 202 205 210 219 222
163 163 168 177 196 190 171 199 189 217 223 221 188 244 296 328 275 166 167 168 197 223 244 246 221 205 210 203 153 124 151 169 182 200 203 202 199 196 197 205 215 219 220
184 189 185 193 204 211 205 229 210 237 237 249 246 221 208 216 245 251 209 190 203 208 228 241 230 232 206 195 188 138 147 159 170 180 186 188 187 185 194 208 221 225 224
187 186 195 201 212 216 209 220 229 228 247 260 264 249 234 243 234 239 245 233 237 215 221 261 249 208 211 198 155 117 130 142 150 153 157 162 171 172 184 197 218 235 242
191 185 207 211 217 214 215 219 223 244 239 242 248 248 247 253 264 258 239 251 262 249 212 215 222 221 217 208 148 142 149 148 147 148 147 144 136 123 111 95 359 322 325
209 182 211 218 224 223 219 212 226 223 233 243 246 251 251 246 240 243 243 250 258 247 216 207 192 211 222 219 127 179 160 152 154 154 153 150 140 124 111 86 37 19 25
219 200 212 216 223 223 221 219 230 230 230 235 235 226 239 241 236 240 237 242 257 263 253 197 208 196 207 211 153 207 180 143 153 157 154 150 141 126 111 92 73 67 62
244 222 221 220 226 229 222 226 228 222 228 232 240 245 245 244 243 240 239 243 249 263 274 239 225 194 185 210 166 209 178 148 162 164 161 157 147 132 122 111 97 86 78
231 229 230 227 226 228 225 227 240 237 237 238 238 234 239 248 246 242 239 239 239 243 254 255 230 178 190 225 184 203 196 196 170 168 168 166 161 152 143 133 121 112 102
233 233 233 234 236 231 227 228 237 238 241 241 243 244 243 238 236 245 241 236 234 235 242 242 227 209 204 207 202 211 206 205 182 155 169 172 171 170 168 160 155 149 139
239 239 232 237 243 239 233 231 236 239 243 243 242 243 245 243 241 241 243 241 236 232 234 238 230 213 219 205 208 214 213 212 203 160 170 177 179 181 181 177 175 168 164
236 235 234 239 243 241 239 240 240 243 245 247 245 245 246 245 243 243 241 238 239 238 229 233 229 216 212 202 211 217 212 205 212 193 179 177 175 185 190 188 188 185 183
240 236 238 238 243 239 241 249 248 242 242 246 247 248 249 253 265 260 261 248 241 241 235 231 232 225 218 204 215 218 219 207 205 212 203 194 186 195 190 193 195 195 194
244 244 240 238 240 246 88 279 269 256 249 247 248 249 247 235 233 236 252 261 258 248 248 244 241 238 232 224 220 223 218 214 215 197 216 219 210 212 203 196 170 179 194
236 242 242 241 242 234 144 228 263 263 253 252 251 248 251 242 235 246 234 234 242 244 243 247 251 250 243 226 222 223 219 224 236 196 210 230 216 223 216 166 154 172 188
233 238 241 241 244 227 169 212 258 251 256 252 248 244 247 248 237 247 253 247 244 237 235 239 251 256 257 237 227 233 229 224 227 218 212 237 220 222 216 181 162 178 188
238 240 239 241 241 231 182 198 242 248 247 252 251 247 246 249 222 225 249 251 251 247 233 236 262 270 276 240 226 228 221 222 228 215 210 236 230 225 220 207 172 177 186
238 246 243 248 248 244 194 197 230 250 251 253 249 245 234 243 226 217 244 249 249 248 248 228 228 233 235 221 210 224 230 231 233 231 205 219 226 223 224 210 196 182 190